Regional Weather Roundup
Issued by NWS

Home | Current Version | Previous Version | Graphics & Text | Print | Product List | Glossary On
Versions: 1 2 3 4 5 6 7 8 9 10 11 12 13 14 15 16 17 18 19 20 21 22 23 24 25 26 27 28 29 30 31 32 33 34 35 36 37 38 39 40 41 42 43 44 45 46 47 48 49 50
000
ASUS43 KLOT 021010
RWRIL

ILLINOIS REGIONAL WEATHER ROUNDUP
NATIONAL WEATHER SERVICE CHICAGO/ROMEOVILLE IL
500 AM CDT THU OCT 02 2014

NOTE: "FAIR" INDICATES FEW OR NO CLOUDS BELOW 12,000 FEET WITH NO
SIGNIFICANT WEATHER AND/OR OBSTRUCTIONS TO VISIBILITY.

* THESE STATIONS ARE NOT UNDER NWS QUALITY CONTROL. THEY ALSO MAY NOT
  REPORT WEATHER SUCH AS PRECIPITATION OR FOG.

ILZ001-002-007-009-015-016-024-021100-
NORTHWEST ILLINOIS

CITY           SKY/WX    TMP DP  RH WIND       PRES   REMARKS
MOLINE         CLOUDY    62  60  93 E3        29.81S FOG
SAVANNA*       CLOUDY    64  59  81 CALM      29.81F
$$

ILZ003-004-008-010-011-017-018-021100-
NORTH CENTRAL ILLINOIS

CITY           SKY/WX    TMP DP  RH WIND       PRES   REMARKS
ROCKFORD       CLOUDY    65  59  81 S3        29.84F
FREEPORT*      CLOUDY    62  57  85 SE5       29.84S
ROCHELLE*      CLOUDY    63  60  90 S5        29.84S
DE KALB*       CLOUDY    61  58  91 CALM      29.86R
PERU*          LGT RAIN  66  63  90 S15       29.80F
$$

ILZ005-006-012>014-019>023-021100-
NORTHEAST ILLINOIS

CITY           SKY/WX    TMP DP  RH WIND       PRES   REMARKS
CHICAGO-OHARE  CLOUDY    63  58  83 SE9       29.85F
CHICAGO-MIDWAY CLOUDY    66  58  75 SE7       29.86F
AURORA         CLOUDY    64  59  83 SE8       29.84F
LANSING*       CLOUDY    62  57  82 S5        29.88F
JOLIET*        CLOUDY    63  59  87 SE5       29.86S
WAUKEGAN       NOT AVBL
DUPAGE AIRPORT CLOUDY    64  59  83 SE12      29.83F
KANKAKEE*      LGT RAIN  63  62  97 CALM      29.89S
WHEELING       CLOUDY    64  57  78 S7        29.87S
MORRIS*        CLOUDY    66  64  91 SE7       29.84S
ROMEOVILLE*    CLOUDY    63  57  82 SE8       29.85F
NORTHERLY ISL    N/A     63  57  81 S9          N/A
$$

LMZ740>746-021100-
SOUTHERN LAKE MICHIGAN

STATION/POSITION SKY/WX   TEMP    WIND        PRES    VSBY  WAVE
                          AIR SEA DIR/SP/G                  HT/PER
                          (F)     (DEG/KT/KT) (MB)    (MI)  (FT/S)
SOUTHERN BUOY              63 62  150/ 17/ 19 1011.5F         4/ 5
WAUKEGAN HARBOR            62     160/ 13/ 14   N/A
HARRISON CRIB              63     150/ 17/ 22   N/A
BURNHAM HARBOR             63     160/  7/ 10   N/A
CALUMET HARBOR             64     140/  4/  8 1010.3F
MICHIGAN CITY              60     120/ 11/ 13   N/A
MICHIGAN CITY 6N           62 64  130/  8/ 10   N/A           1/ 2
ST. JOSEPH                 61 63  130/ 10/ 14   N/A           1/ 2
$$

ILZ025>027-034>036-040-047-049-050-058-095>099-021100-
WEST-CENTRAL ILLINOIS

CITY           SKY/WX    TMP DP  RH WIND       PRES   REMARKS
QUINCY         LGT RAIN  65  61  87 SE14      29.78F
GALESBURG*     CLOUDY    64  63  97 NW3       29.82R
MACOMB*        CLOUDY    65  64  98 S8        29.83R
JACKSONVILLE*  LGT RAIN  67  66  97 S7        29.88R
PITTSFIELD*    CLOUDY    65  63  92 SE8       29.85S
$$

ILZ028>032-037-038-041>044-048-051>054-059>061-021100-
CENTRAL ILLINOIS

CITY           SKY/WX    TMP DP  RH WIND       PRES   REMARKS
PONTIAC        CLOUDY    68  66  94 S5        29.87S
DECATUR        RAIN      67  66  97 SW5       29.91R FOG
PEORIA         LGT RAIN  68  63  84 S15       29.78F
LACON*         RAIN      65  63  91 SE15      29.78F
LINCOLN*       TSTM      67  65  94 SE5       29.86F
SPRINGFIELD    RAIN      66  64  93 E9        29.85F
TAYLORVILLE    RAIN      64  63  94 NW3       29.92R
$$

ILZ033-039-045-046-055>057-062-063-021100-
EAST-CENTRAL ILLINOIS

CITY           SKY/WX    TMP DP  RH WIND       PRES   REMARKS
CHAMPAIGN      LGT RAIN  67  64  90 SE13      29.89F
DANVILLE*      HVY RAIN  63  61  94 S9        29.90R
RANTOUL*       RAIN      68  64  88 S15       29.89S
MATTOON        LGT RAIN  65  65 100 N6        29.91F
PARIS*         RAIN      63  62  96 W5        29.95R
$$

ILZ079-100>102-021100-
SOUTHWEST ILLINOIS

CITY           SKY/WX    TMP DP  RH WIND       PRES   REMARKS
ALTON          RAIN      65  64  95 CALM      29.89F
BELLEVILLE     CLOUDY    69  68  98 VRB5      29.87R
CAHOKIA*       CLOUDY    70  66  87 N16       29.88R
SPARTA*        PTCLDY    73  63  70 S9        29.88S
$$

ILZ064>066-069>071-074>076-080>082-084>086-088>090-092>094-021100-
SOUTH-CENTRAL ILLINOIS

CITY           SKY/WX    TMP DP  RH WIND       PRES   REMARKS
CARBONDALE     CLOUDY    71  60  68 S7        29.88S
CAIRO*         CLOUDY    73  61  67 S6        29.89S
EFFINGHAM*     RAIN      66  64  91 CALM      29.90S
MARION         MOCLDY    72  61  68 S8        29.90R
CENTRALIA*     MOCLDY    70  60  69 S6        29.88R
SALEM*         CLOUDY    71  66  84 CALM      29.88F
METROPOLIS*    CLOUDY    69  63  80 CALM      29.90S
$$

ILZ067-068-072-073-078-083-087-091-021100-
SOUTHEAST ILLINOIS

CITY           SKY/WX    TMP DP  RH WIND       PRES   REMARKS
LAWRENCEVILLE  CLOUDY    66  59  78 S6        29.91S
FLORA*         CLOUDY    68  60  76 CALM      29.89S
FAIRFIELD*     MOCLDY    70  63  78 CALM      29.89S
HARRISBURG*    MOCLDY    71  62  74 S3        29.91S
ROBINSON*      CLOUDY    64  62  93 CALM      29.91S
CARMI*         CLOUDY    68  63  83 S3        29.91R
$$

ABBREVIATIONS USED IN REMARKS
   TC - TEMPERATURE IN CELSIUS
  WCI - WIND CHILL INDEX
   HX - HEAT INDEX
  VSB - VISIBILITY
$$




USA.gov is the U.S. government's official web portal to all federal, state and local government web resources and services.